LDPE-2

Last updated on Wed Jul 09 2025 00:02:47 GMT+0000 (Coordinated Universal Time)

1 54219U 22144A 25189.32562865 -.00000048 00000+0 00000+0 0 9997 2 54219 4.7970 65.6652 0000455 128.9862 92.3814 1.00561215 8365
UTC large
Height (km)
Speed (km/s)
/
Latitude / Longitude
Inclination (degrees)
Orbital Period (minutes)
Azimuth
Elevation
Range (km)
Doppler Factor

Next 0 passes for location: London (51.5072 / 0.1276)

Sorry there are no passes over London.